This is the latest recevied weather packets stored in our database for station/object N5SRF. If no packets are shown the sender has not sent any weather packets the latest 10 day(s).
| Time | Temp. | Humidity | Pressure | Rain* | Wind** | Luminosity | Snow |
|---|---|---|---|---|---|---|---|
| 1777562648 | 20° C | 99% | 1015.9 hPa | 0 mm | - | 36 W/m² | - |
| 1777562342 | 20° C | 99% | 1015.9 hPa | 0 mm | - | 32 W/m² | - |
| 1777562038 | 20° C | 99% | 1015.8 hPa | 0 mm | - | 30 W/m² | - |
| 1777561736 | 20° C | 99% | 1015.7 hPa | 0 mm | - | 34 W/m² | - |
| 1777561431 | 20° C | 99% | 1015.7 hPa | 0 mm | - | 51 W/m² | - |
| 1777561126 | 20° C | 99% | 1015.5 hPa | 0 mm | - | 58 W/m² | - |
| 1777560821 | 20° C | 99% | 1015.5 hPa | 0 mm | - | 82 W/m² | - |
| 1777560520 | 20° C | 99% | 1015.6 hPa | 0 mm | - | 56 W/m² | - |
| 1777560217 | 20° C | 99% | 1015.4 hPa | 0 mm | - | 33 W/m² | - |
| 1777559914 | 20° C | 99% | 1015.6 hPa | 0 mm | - | 20 W/m² | - |
| 1777559609 | 20° C | 99% | 1015.6 hPa | 0 mm | - | 17 W/m² | - |
| 1777559307 | 20° C | 99% | 1015.8 hPa | 0 mm | - | 16 W/m² | - |
| 1777559003 | 20° C | 99% | 1015.6 hPa | 0 mm | - | 19 W/m² | - |
| 1777558699 | 20° C | 99% | 1015.5 hPa | 0 mm | - | 18 W/m² | - |
| 1777558395 | 20° C | 99% | 1015.3 hPa | 0 mm | - | 17 W/m² | - |
| 1777558091 | 20° C | 99% | 1015.4 hPa | 0 mm | - | 19 W/m² | - |
| 1777557787 | 20° C | 99% | 1015.2 hPa | 0 mm | - | 23 W/m² | - |
| 1777557484 | 20° C | 99% | 1015.1 hPa | 0 mm | - | 19 W/m² | - |
| 1777557180 | 20° C | 99% | 1015.1 hPa | 0 mm | - | 17 W/m² | - |
| 1777556876 | 20° C | 99% | 1015.2 hPa | 0 mm | - | 15 W/m² | - |
| 1777556572 | 20.56° C | 99% | 1014.9 hPa | 0 mm | - | 15 W/m² | - |
| 1777556272 | 20.56° C | 99% | 1014.9 hPa | 0 mm | - | 17 W/m² | - |
| 1777555968 | 20° C | 99% | 1015.1 hPa | 0 mm | - | 17 W/m² | - |
| 1777555663 | 20° C | 99% | 1015.1 hPa | 0 mm | - | 19 W/m² | - |
| 1777555360 | 20.56° C | 99% | 1015.1 hPa | 0 mm | - | 23 W/m² | - |
* Rain latest hour (hover to see other rain measurements)
** Current wind speed in m/s (hover to see current wind gust speed)